Location: Newark
(63.1158°N, 8.1461°E)
Time: 07:25:02
(UTC+00:00)

Envisat - Pass Details

Date: 17 December 2019
Orbit: 764 x 766 km, 98.1° (Epoch: 26 January)

Event Time Altitude Azimuth Distance (km) Brightness Sun altitude
Rises 06:53:42 0° 18° (NNE) 3,251 6.1 -11.2°
Reaches altitude 10° 06:56:01 10° 19° (NNE) 2,320 5.4 -11.0°
Maximum altitude 07:01:09 89° 103° (ESE) 776 3.0 -10.5°
Drops below altitude 10° 07:06:15 10° 201° (SSW) 2,305 5.6 -10.0°
Sets 07:08:33 0° 201° (SSW) 3,227 6.4 -9.8°
